TimePST,TemperatureF,Dew PointF,Humidity,Sea Level PressureIn,VisibilityMPH,Wind Direction,Wind SpeedMPH,Gust SpeedMPH,PrecipitationIn,Events,Conditions,WindDirDegrees,DateUTC
12:53 AM,34.0,32.0,92,30.17,7.0,SSE,4.6,-,N/A,,Clear,160,2012-11-11 08:53:00
1:53 AM,33.1,32.0,96,30.17,5.0,SSE,3.5,-,N/A,,Clear,150,2012-11-11 09:53:00
2:53 AM,34.0,32.0,92,30.17,10.0,SE,3.5,-,N/A,,Clear,140,2012-11-11 10:53:00
3:53 AM,30.0,28.9,96,30.18,10.0,Calm,Calm,-,N/A,,Clear,0,2012-11-11 11:53:00
4:53 AM,30.0,28.9,96,30.19,10.0,Calm,Calm,-,N/A,,Clear,0,2012-11-11 12:53:00
5:53 AM,28.9,27.0,92,30.21,10.0,Calm,Calm,-,N/A,,Clear,0,2012-11-11 13:53:00
6:53 AM,30.9,30.0,96,30.23,10.0,Calm,Calm,-,N/A,,Clear,0,2012-11-11 14:53:00
7:53 AM,42.1,37.0,82,30.25,10.0,Calm,Calm,-,N/A,,Clear,0,2012-11-11 15:53:00
8:53 AM,51.1,35.1,54,30.26,10.0,ESE,4.6,-,N/A,,Clear,110,2012-11-11 16:53:00
9:53 AM,55.9,25.0,30,30.26,10.0,Calm,Calm,-,N/A,,Clear,0,2012-11-11 17:53:00
10:53 AM,59.0,28.0,31,30.25,10.0,Variable,3.5,-,N/A,,Clear,0,2012-11-11 18:53:00
11:53 AM,63.0,16.0,16,30.22,10.0,East,12.7,-,N/A,,Clear,80,2012-11-11 19:53:00
12:53 PM,64.0,16.0,16,30.21,10.0,ENE,11.5,-,N/A,,Clear,60,2012-11-11 20:53:00
1:53 PM,64.9,15.1,15,30.19,10.0,ENE,13.8,20.7,N/A,,Clear,70,2012-11-11 21:53:00
2:53 PM,64.0,14.0,14,30.19,10.0,ENE,15.0,-,N/A,,Clear,70,2012-11-11 22:53:00
3:53 PM,61.0,16.0,17,30.20,10.0,ENE,17.3,-,N/A,,Clear,70,2012-11-11 23:53:00
4:53 PM,57.0,16.0,20,30.22,10.0,ENE,11.5,-,N/A,,Clear,60,2012-11-12 00:53:00
5:53 PM,54.0,17.1,23,30.25,10.0,ESE,4.6,-,N/A,,Clear,110,2012-11-12 01:53:00
6:53 PM,48.0,19.0,32,30.27,10.0,Calm,Calm,-,N/A,,Clear,0,2012-11-12 02:53:00
7:53 PM,54.0,16.0,22,30.27,10.0,ENE,8.1,18.4,N/A,,Clear,60,2012-11-12 03:53:00
8:53 PM,53.1,16.0,23,30.27,10.0,NE,9.2,-,N/A,,Clear,50,2012-11-12 04:53:00
9:53 PM,54.0,16.0,22,30.25,10.0,ENE,15.0,-,N/A,,Clear,60,2012-11-12 05:53:00
10:53 PM,54.0,16.0,22,30.22,10.0,ENE,13.8,25.3,N/A,,Clear,70,2012-11-12 06:53:00
11:53 PM,54.0,15.1,22,30.19,10.0,ENE,15.0,-,N/A,,Clear,70,2012-11-12 07:53:00